This is the latest recevied weather packets stored in our database for station/object KC9GSD. If no packets are shown the sender has not sent any weather packets the latest 10 day(s).
| Time | Temp. | Humidity | Pressure | Rain* | Wind** | Luminosity | Snow |
|---|---|---|---|---|---|---|---|
| 1777929763 | 24.44° C | 39% | 1013.2 hPa | 0 mm | - | 491 W/m² | - |
| 1777929460 | 24.44° C | 40% | 1013.1 hPa | 0 mm | - | 504 W/m² | - |
| 1777929156 | 25° C | 44% | 1013.3 hPa | 0 mm | - | 524 W/m² | - |
| 1777928854 | 24.44° C | 43% | 1013.3 hPa | 0 mm | - | 537 W/m² | - |
| 1777928551 | 24.44° C | 44% | 1013.4 hPa | 0 mm | - | 546 W/m² | - |
| 1777928248 | 25° C | 41% | 1013.4 hPa | 0 mm | - | 563 W/m² | - |
| 1777927946 | 25° C | 44% | 1013.4 hPa | 0 mm | - | 568 W/m² | - |
| 1777927644 | 25° C | 44% | 1013.4 hPa | 0 mm | - | 588 W/m² | - |
| 1777927342 | 24.44° C | 47% | 1013.7 hPa | 0 mm | - | 596 W/m² | - |
| 1777927041 | 25° C | 43% | 1013.5 hPa | 0 mm | - | 613 W/m² | - |
| 1777926738 | 25° C | 41% | 1013.7 hPa | 0 mm | - | 534 W/m² | - |
| 1777926438 | 25° C | 49% | 1013.7 hPa | 0 mm | - | 646 W/m² | - |
| 1777926135 | 25° C | 41% | 1013.5 hPa | 0 mm | - | 661 W/m² | - |
| 1777925832 | 25.56° C | 44% | 1013.7 hPa | 0 mm | - | 668 W/m² | - |
| 1777925529 | 25.56° C | 39% | 1013.8 hPa | 0 mm | - | 668 W/m² | - |
| 1777925227 | 24.44° C | 44% | 1013.8 hPa | 0 mm | - | 635 W/m² | - |
| 1777924923 | 25° C | 39% | 1014.1 hPa | 0 mm | - | 714 W/m² | - |
| 1777924619 | 26.11° C | 42% | 1014 hPa | 0 mm | - | 736 W/m² | - |
| 1777924315 | 25.56° C | 40% | 1014.3 hPa | 0 mm | - | 788 W/m² | - |
| 1777924012 | 26.11° C | 47% | 1014.2 hPa | 0 mm | - | 750 W/m² | - |
| 1777923708 | 26.11° C | 44% | 1014.1 hPa | 0 mm | - | 758 W/m² | - |
| 1777923405 | 25.56° C | 48% | 1014.3 hPa | 0 mm | - | 761 W/m² | - |
| 1777923103 | 25° C | 45% | 1014.3 hPa | 0 mm | - | 794 W/m² | - |
| 1777922800 | 25° C | 39% | 1014.4 hPa | 0 mm | - | 736 W/m² | - |
| 1777922498 | 25° C | 49% | 1014.4 hPa | 0 mm | - | 793 W/m² | - |
* Rain latest hour (hover to see other rain measurements)
** Current wind speed in m/s (hover to see current wind gust speed)